Single Track Minds Race 1 - 4 Hr
Skip Navigation Links
Results
Details
21 Apr 2013
HyperLink
Page 1 of 4 (196 items)
[1]234
Pos
Race No
Fav
Name
Time
Category
Cat Pos
Gender
Gen Pos
1184Kalamunda Cycles 03:47:39Duo1Male1
232Craig COOKE03:48:26Solo1Male2
343Jon GREGG03:52:44Solo2Male3
461Dave NAIRN03:58:43Solo3Male4
560Adrian MIDDLETON03:42:02Solo4Male5
6102Simon DEC03:50:35Solo 40+1Male6
7180IOCC Pair A 03:53:09Duo2Male7
847Glen HILL03:53:17Solo5Male8
9151L'entrepreneur bicyclette Singes de service 03:54:15Duo3Male9
1072Brian SING03:55:53Solo6Male10
11170Elbow Skin 03:56:43Duo4Male11
1250Clive JONES03:58:01Solo7Male12
13229ZZ HOUSE 03:58:40Duo5Male13
14171Fitzroys Cycles 03:58:47Duo6Male14
1588Ashley WILLIAMS03:42:38Solo8Male15
16143Damon WICKI03:43:41Solo 40+2Male16
17200Shparklebat 03:44:53Duo Mixed1Male17
18182JCC 03:46:04Duo7Male18
1992Jason AULD03:48:13Solo 40+3Male19
2079Matthew TUREI03:48:52Solo9Male20
21226Wild Ducks 03:49:14Duo8Male21
22250Team Tucknott 03:51:24Duo Mixed2Male22
23188Leigh & Smithy 03:51:51Duo9Male23
2481Matt VELEFF03:52:09Solo10Male24
25156Bike Shed Bros 03:53:20Duo10Male25
2634Dylan CROSS03:53:36Solo11Male26
2736Martin DOLINSCHEK03:53:56Solo12Male27
28214The Dan O'Kane Duo 03:54:01Duo11Male28
29186KD Cycles 03:54:16Duo Mixed3Male29
30163Can't think of a name 03:54:19Duo Mixed4Male30
31129Bryan NEWTON03:55:11Solo 40+4Male31
3242Clinton GREEN03:56:06Solo13Male32
33122Stephen MARKS03:56:41Solo 40+5Male33
3444Dan HELM03:58:28Solo14Male34
3553James KENNEDY03:58:45Solo15Male35
36131Mark RUBERY03:59:30Solo 40+6Male36
37215the locals 03:41:11Duo12Male37
3849Greg IRELAND03:42:43Solo16Male38
3937Simon DUNCALF03:44:00Solo17Male39
40246Pile Road Young Guns 03:44:54Duo13Male40
411Rhianna FARRELL03:45:18Solo1Female1
42191Philip JOHNSTON03:45:41Solo 40+7Male41
43162Camel Crusaders 03:47:46Duo14Male42
4478Chris THOMSON03:48:11Solo18Male43
45178Indian Ocean A Team 03:48:56Duo15Male44
46103Alan DENT03:49:33Solo 40+8Male45
47223Wembley Cycles Junior Team 03:51:20Duo Mixed5Male46
48202Shy Teds 03:55:16Duo16Male47
49145Daniel HOLMES03:55:42Solo Single Speed1Male48
5023Ross CHADWICK03:55:47Solo19Male49
Page 1 of 4 (196 items)
[1]234

HyperLink Copyright (c) G Vincent, 2018